Energy, IL

5:38 PM CDT on July 29, 2016 (GMT -0500)
Williamson County Regional

Weather History for KMWA - February, 2012

Change the Weather History Date:

Tuesday, February 21, 2012

  Actual Average Record
Temperature  
Mean Temperature 46 °F -  
Max Temperature 55 °F 51 °F 72 °F (1983)
Min Temperature 37 °F 29 °F 14 °F (1988)
Degree Days  
Heating Degree Days 19    
Moisture  
Dew Point 35 °F    
Average Humidity 66    
Maximum Humidity 87    
Minimum Humidity 44    
Precipitation  
Precipitation 0.02 in - - ()
Sea Level Pressure  
Sea Level Pressure 29.87 in    
Wind  
Wind Speed 13 mph (South)    
Max Wind Speed 23 mph    
Max Gust Speed 31 mph    
Visibility 13 miles    
Events Rain    
Averages and records for this station are not official NWS values.
T = Trace of Precipitation, MM = Missing Value Source: NWS Daily Summary

Daily Weather History Graph

Daily Weather History Graph

Search for Another Location

Airport or City:

Trip Planner

Search our weather history database for the weather conditions in past years. The results will help you decide how hot, cold, wet, or windy it might be!

Date:

Astronomy

Feb. 21, 2012 Rise Set
Actual Time 6:38 AM CST 5:41 PM CST
Civil Twilight 6:12 AM CST 6:07 PM CST
Nautical Twilight 5:41 AM CST 6:38 PM CST
Astronomical Twilight 5:11 AM CST 7:08 PM CST
Moon 6:08 AM CST (2/21) 5:46 PM CST (2/21)
Length of Visible Light 11h 55m
Length of Day
11h 02m
Waning Crescent, 0% of the Moon is Illuminated
Feb 21
Waning Crescent
Feb 21
New
Feb 29
First Quarter
Mar 8
Full
Mar 14
Last Quarter

Hourly Weather History & Observations

Time (CST) Temp. Windchill Dew Point Humidity Pressure Visibility Wind Dir Wind Speed Gust Speed Precip Events Conditions
12:15 AM 46.4 °F 40.4 °F 28.4 °F 50% 29.87 in 10.0 mi SSE 13.8 mph 19.6 mph N/A   Mostly Cloudy
12:35 AM 46.4 °F 40.7 °F 30.2 °F 53% 29.86 in 10.0 mi SSE 12.7 mph - N/A Rain Light Rain
12:55 AM 44.6 °F 37.8 °F 33.8 °F 66% 29.90 in 10.0 mi South 15.0 mph - N/A Rain Light Rain
1:35 AM 44.6 °F 36.9 °F 35.6 °F 71% 29.81 in 10.0 mi SSE 18.4 mph 27.6 mph 0.02 in   Overcast
1:55 AM 44.6 °F 36.4 °F 35.6 °F 71% 29.77 in 10.0 mi SSE 20.7 mph 28.8 mph 0.02 in   Mostly Cloudy
2:15 AM 44.6 °F 36.6 °F 35.6 °F 71% 29.77 in 10.0 mi SSE 19.6 mph 27.6 mph N/A   Scattered Clouds
2:35 AM 44.6 °F 36.4 °F 37.4 °F 76% 29.76 in 10.0 mi South 20.7 mph 26.5 mph N/A   Clear
2:55 AM 44.6 °F 35.9 °F 37.4 °F 76% 29.77 in 10.0 mi South 23.0 mph 26.5 mph N/A   Clear
3:15 AM 46.4 °F 39.5 °F 37.4 °F 71% 29.77 in 10.0 mi South 17.3 mph 31.1 mph N/A   Scattered Clouds
3:35 AM 46.4 °F 40.7 °F 37.4 °F 71% 29.77 in 10.0 mi South 12.7 mph 25.3 mph N/A   Mostly Cloudy
3:55 AM 50.0 °F - 39.2 °F 66% 29.76 in 10.0 mi SSW 18.4 mph 27.6 mph N/A   Overcast
4:15 AM 48.2 °F - 39.2 °F 71% 29.78 in 10.0 mi SSW 15.0 mph 26.5 mph N/A   Overcast
4:55 AM 48.2 °F - 41.0 °F 76% 29.80 in 10.0 mi SSW 12.7 mph 21.9 mph N/A   Overcast
5:15 AM 48.2 °F - 37.4 °F 66% 29.81 in 10.0 mi SSW 15.0 mph 23.0 mph N/A   Mostly Cloudy
5:35 AM 46.4 °F 40.7 °F 37.4 °F 71% 29.82 in 10.0 mi SSW 12.7 mph 23.0 mph N/A   Scattered Clouds
5:55 AM 46.4 °F 41.5 °F 35.6 °F 66% 29.84 in 10.0 mi SW 10.4 mph 20.7 mph N/A   Scattered Clouds
6:15 AM 46.4 °F 41.9 °F 35.6 °F 66% 29.84 in 10.0 mi SSW 9.2 mph 17.3 mph N/A   Mostly Cloudy
6:35 AM 46.4 °F 41.5 °F 33.8 °F 62% 29.85 in 10.0 mi South 10.4 mph - N/A   Scattered Clouds
6:55 AM 46.4 °F 40.4 °F 33.8 °F 62% 29.85 in 20.0 mi SW 13.8 mph - N/A   Scattered Clouds
7:55 AM 48.2 °F - 35.6 °F 62% 29.90 in 20.0 mi SW 16.1 mph - N/A   Mostly Cloudy
8:55 AM 48.2 °F - 35.6 °F 62% 29.91 in 20.0 mi SSW 16.1 mph - N/A   Overcast
9:55 AM 50.0 °F - 37.4 °F 62% 29.93 in 20.0 mi SW 13.8 mph - N/A   Overcast
10:55 AM 50.0 °F - 37.4 °F 62% 29.95 in 20.0 mi SSW 11.5 mph 16.1 mph N/A   Overcast
11:53 AM 50.0 °F - 37.4 °F 62% 29.95 in 20.0 mi SSW 13.8 mph 20.7 mph N/A   Overcast
12:53 PM 53.6 °F - 39.2 °F 58% 29.92 in 20.0 mi SW 13.8 mph - N/A   Overcast
1:54 PM 55.4 °F - 37.4 °F 51% 29.91 in 20.0 mi WSW 15.0 mph 23.0 mph N/A   Overcast
2:53 PM 55.4 °F - 37.4 °F 51% 29.91 in 20.0 mi WSW 13.8 mph 20.7 mph N/A   Mostly Cloudy
3:54 PM 55.4 °F - 35.6 °F 47% 29.91 in 20.0 mi SW 9.2 mph - N/A   Mostly Cloudy
4:54 PM 55.4 °F - 33.8 °F 44% 29.91 in 20.0 mi WSW 8.1 mph - N/A   Mostly Cloudy
5:57 PM 48.2 °F - 35.6 °F 62% 29.91 in 20.0 mi Calm Calm - N/A   Mostly Cloudy
6:35 PM 48.2 °F - 33.8 °F 58% 29.91 in 10.0 mi South 3.5 mph - N/A   Clear
6:55 PM 50.0 °F - 33.8 °F 54% 29.91 in 10.0 mi SSE 3.5 mph - N/A   Clear
7:15 PM 46.4 °F 43.5 °F 33.8 °F 62% 29.91 in 10.0 mi SSE 5.8 mph - N/A   Clear
7:35 PM 44.6 °F 43.1 °F 35.6 °F 71% 29.91 in 10.0 mi South 3.5 mph - N/A   Clear
7:55 PM 46.4 °F - 35.6 °F 66% 29.91 in 10.0 mi Calm Calm - N/A   Clear
8:15 PM 44.6 °F - 35.6 °F 71% 29.91 in 10.0 mi Calm Calm - N/A   Clear
8:35 PM 44.6 °F 42.2 °F 35.6 °F 71% 29.91 in 10.0 mi South 4.6 mph - N/A   Clear
8:55 PM 42.8 °F 39.3 °F 33.8 °F 70% 29.91 in 10.0 mi South 5.8 mph - N/A   Clear
9:15 PM 41.0 °F 37.1 °F 33.8 °F 76% 29.91 in 10.0 mi South 5.8 mph - N/A   Clear
9:35 PM 37.4 °F 32.1 °F 33.8 °F 87% 29.91 in 10.0 mi South 6.9 mph - N/A   Clear
9:55 PM 39.2 °F 33.0 °F 33.8 °F 81% 29.91 in 10.0 mi South 9.2 mph - N/A   Clear
10:15 PM 41.0 °F 37.1 °F 33.8 °F 76% 29.90 in 10.0 mi South 5.8 mph - N/A   Clear
10:35 PM 41.0 °F 37.1 °F 32.0 °F 70% 29.90 in 10.0 mi South 5.8 mph - N/A   Clear
10:55 PM 41.0 °F 37.1 °F 33.8 °F 76% 29.88 in 10.0 mi SSE 5.8 mph - N/A   Clear
11:15 PM 41.0 °F 36.4 °F 32.0 °F 70% 29.88 in 10.0 mi SSE 6.9 mph - N/A   Clear
11:35 PM 41.0 °F 38.0 °F 33.8 °F 76% 29.87 in 10.0 mi SSE 4.6 mph - N/A   Clear
11:55 PM 41.0 °F 37.1 °F 32.0 °F 70% 29.86 in 10.0 mi SSE 5.8 mph - N/A   Clear